Flag for Canada Weather past 2 weeks in Oakville, Ontario, Canada

Now
76 °F

Mild.


Feels Like: 76 °F
Forecast: 70 / 79 °F
Wind: 5 mph from Southwest

Location: Burlington Piers

Current Time: Sep 3, 2015 at 3:07:34 AM

Latest Report: Sep 3, 2015 at 2:00 AM


Visibility: N/A

Pressure: 29.90 "Hg

Humidity: 83%

Dew point: 70 °F

Location of OakvilleLocation

Historic Weather in Oakville — Graph

°F

Oakville temperature yesterday

Maximum temperature yesterday: 88 °F (at 4:00 PM)
Minimum temperature yesterday: 71 °F (at 2:00 AM)
Average temperature yesterday: 78 °F

Past Weeks' High & Low Weather Summary

 TemperatureHumidityPressure
High88 °F (Sep 2, 4:00 PM)98% (Aug 31, 9:00 AM)30.22 "Hg (Aug 31, 9:00 AM)
Low58 °F (Aug 28, 7:00 AM)43% (Aug 24, 2:00 PM)29.70 "Hg (Aug 20, 6:00 AM)
Average69 °F73%30.00 "Hg
* Reported Aug 19 2:00 AM — Sep 3 2:00 AM, Oakville, Weather by CustomWeather, © 2015

Note: Actual official high and low records may vary slightly from our data, if they occured in-between our weather recording intervals... More about our weather records

Advertising

Oakville weather history for previous 24 hours

 ConditionsComfort  
Time TempWeatherWind HumidityBarometerVisibility
2:00 AM
Thu, Sep 3
76 °FMild.5 mph83%29.90 "HgN/A
1:00 AM76 °FMild.6 mph79%29.91 "HgN/A
12:00 AM76 °FMild.8 mph81%29.91 "HgN/A
11:00 PM
Wed, Sep 2
77 °FWarm.5 mph78%29.93 "HgN/A
10:00 PM78 °FWarm.5 mph74%29.93 "HgN/A
9:00 PM80 °FWarm.3 mph69%29.92 "HgN/A
8:00 PM81 °FWarm.2 mph63%29.90 "HgN/A
7:00 PM82 °FWarm.5 mph64%29.90 "HgN/A
6:00 PM83 °FWarm.6 mph58%29.90 "HgN/A
5:00 PM86 °FWarm.5 mph47%29.90 "HgN/A
4:00 PM88 °FHot.6 mph45%29.91 "HgN/A
3:00 PM87 °FWarm.6 mph48%29.94 "HgN/A
2:00 PM86 °FWarm.7 mph54%29.95 "HgN/A
1:00 PM86 °FWarm.6 mph51%29.97 "HgN/A
12:00 PM83 °FWarm.5 mph58%29.99 "HgN/A
11:00 AM79 °FWarm.7 mph72%30.01 "HgN/A
10:00 AM76 °FMild.7 mph75%30.01 "HgN/A
9:00 AM72 °FMild.6 mph84%30.02 "HgN/A
8:00 AM71 °FMild.5 mph86%30.03 "HgN/A
7:00 AM71 °FMild.3 mph86%30.02 "HgN/A
6:00 AM71 °FMild.2 mph85%30.01 "HgN/A
5:00 AM72 °FMild.1 mph83%30.02 "HgN/A
4:00 AM72 °FMild.3 mph82%30.01 "HgN/A
3:00 AM72 °FMild.6 mph84%30.02 "HgN/A
Weather by CustomWeather, © 2015

See weather overviewHow to use our weather pages